www.pogodaiklimat.ru

Погода и климат >> Архив погоды >> Норвегия >> Маяк Lista


ПОГОДА на Маяке Lista

  • Прогноз погоды на Маяке Lista
  • Монитор погоды на Маяке Lista

АРХИВ ПОГОДЫ на Маяке Lista

Время (UTC), дата Ветер
(напр.,м/с)
 
Видим.   Явления Облачность Т
(С)
Тd
(С)
f
(%)
Тe
(С)
Тes
(С)
Комфортность P
(гПа)
Po
(гПа)
Тmin
(С)
Tmax
(С)
R
(мм)
R24
(мм)
S
(см)
01 14.07 СЗ 8-12
{12}
н/о н/о +12.7 +11.3 91 +10 +10 1013.4 1011.7
02 14.07 СЗ 8-11
{13}
н/о н/о +12.6 +11.3 92 +9 +9 1013.3 1011.7
03 14.07 СЗ 8-12
{12}
н/о н/о +12.5 +11.1 91 +9 +9 1013.3 1011.7
04 14.07 СЗ 7-10
{12}
н/о н/о +13.0 +11.4 90 +10 +10 1013.5 1011.9
05 14.07 СЗ 7-10
{11}
н/о н/о +13.0 +11.2 89 +10 +10 1013.7 1012.1
06 14.07 СЗ 9-12
{13}
н/о н/о +13.2 +10.9 86 +10 +10 1013.9 1012.3 +12.4 +14.9
07 14.07 СЗ 8-10
{13}
н/о н/о +13.8 +11.2 84 +11 +11 1014.3 1012.7
08 14.07 СЗ 7-10
{11}
н/о н/о +14.5 +11.3 81 +12 +12 1014.5 1012.8
09 14.07 СЗ 8-11
{11}
н/о н/о +14.5 +11.1 80 +12 +12 1014.6 1013.0
10 14.07 СЗ 6-11
{13}
н/о н/о +15.0 +11.2 78 +13 +13 1014.9 1013.3
11 14.07 СЗ 9-11
{13}
н/о н/о +15.2 +11.0 76 +13 +13 1014.4 1012.8
12 14.07 СЗ 8-12
{13}
н/о н/о +15.0 +11.0 77 +13 +13 1014.4 1012.8
13 14.07 СЗ 10-14
{14}
н/о н/о +15.0 +11.0 77 +13 +13 1014.1 1012.5
14 14.07 СЗ 10-16
{16}
н/о н/о +14.6 +10.4 76 +12 +12 1013.8 1012.2
15 14.07 СЗ 13-16
{17}
н/о н/о +14.4 +10.4 77 +11 +11 1013.3 1011.7
16 14.07 СЗ 14-17
{18}
н/о н/о +14.0 +10.4 79 +11 +11 1013.0 1011.4
17 14.07 СЗ 13-18
{18}
н/о н/о +13.8 +10.4 80 +10 +10 1012.9 1011.2
18 14.07 СЗ 14-17
{18}
н/о н/о +13.5 +9.9 79 +10 +10 1012.7 1011.0 +13.1 +15.4
19 14.07 СЗ 12-16
{17}
н/о н/о +13.5 +9.9 79 +10 +10 1012.6 1011.0
20 14.07 СЗ 12-14
{16}
н/о н/о +13.0 +10.0 82 +9 +9 1012.8 1011.2
21 14.07 СЗ 11-14
{15}
н/о н/о +12.3 +9.7 84 +9 +9 1012.7 1011.1
22 14.07 СЗ 12-15
{15}
н/о н/о +12.0 +9.7 86 +8 +8 1012.5 1010.9
23 14.07 СЗ 10-14
{16}
н/о н/о +11.9 +9.8 87 +8 +8 1012.5 1010.9
00 15.07 СЗ 9-12
{17}
н/о н/о +12.1 +9.8 86 +9 +9 1012.3 1010.7
01 15.07 СЗ 9-11
{12}
н/о н/о +11.9 +9.8 87 +8 +8 1012.3 1010.7
02 15.07 СЗ 10-12
{13}
н/о н/о +11.8 +9.9 88 +8 +8 1012.3 1010.7
03 15.07 СЗ 9-12
{13}
н/о н/о +11.8 +9.9 88 +8 +8 1012.1 1010.5
04 15.07 СЗ 8-12
{13}
н/о н/о +11.7 +10.0 89 +8 +8 1012.0 1010.3
05 15.07 СЗ 9-13
{14}
н/о н/о +11.8 +9.9 88 +8 +8 1012.0 1010.4
06 15.07 СЗ 11-14
{14}
н/о н/о +12.2 +9.9 86 +8 +8 1011.8 1010.1 +11.6 +13.5
07 15.07 СЗ 11-14
{15}
н/о н/о +12.6 +10.2 85 +9 +9 1011.7 1010.1
08 15.07 СЗ 11-13
{15}
н/о н/о +13.6 +10.2 80 +10 +10 1012.0 1010.4
09 15.07 СЗ 12-15
{15}
н/о н/о +13.9 +9.9 77 +11 +11 1011.4 1009.8
10 15.07 СЗ 13-16
{17}
н/о н/о +14.6 +10.0 74 +12 +12 1011.6 1010.0
11 15.07 СЗ 14-18
{18}
н/о н/о +14.5 +10.7 78 +11 +11 1011.7 1010.1
12 15.07 СЗ 14-17
{19}
н/о н/о +14.4 +11.0 80 +11 +11 1011.5 1009.9
13 15.07 СЗ 14-18
{19}
н/о н/о +14.3 +11.1 81 +11 +11 1011.4 1009.8
14 15.07 СЗ 14-18
{18}
н/о н/о +14.3 +11.1 81 +11 +11 1011.5 1009.9
15 15.07 СЗ 14-17
{18}
н/о н/о +14.1 +11.1 82 +11 +11 1011.9 1010.3
16 15.07 СЗ 12-15
{16}
н/о н/о +14.2 +11.4 83 +11 +11 1012.0 1010.3
17 15.07 СЗ 14-17
{17}
н/о н/о +13.3 +11.2 87 +10 +10 1012.1 1010.5
18 15.07 СЗ 13-17
{19}
н/о н/о +13.1 +11.3 89 +9 +9 1011.9 1010.3 +12.3 +14.9
19 15.07 СЗ 13-16
{17}
н/о н/о +12.8 +11.2 90 +9 +9 1012.0 1010.4
20 15.07 СЗ 11-14
{15}
н/о н/о +12.3 +11.0 92 +8 +8 1012.0 1010.3
21 15.07 СЗ 11-14
{15}
н/о н/о +12.6 +11.3 92 +9 +9 1012.1 1010.5
22 15.07 СЗ 10-12
{14}
н/о н/о +12.4 +11.3 93 +9 +9 1012.2 1010.6
23 15.07 СЗ 10-13
{13}
н/о н/о +12.5 +11.2 92 +9 +9 1012.0 1010.3
00 16.07 СЗ 9-13
{17}
н/о н/о +12.4 +11.1 92 +9 +9 1012.3 1010.7
01 16.07 СЗ 7-10
{13}
н/о н/о +12.1 +11.0 93 +9 +9 1012.8 1011.1
02 16.07 СЗ 8-11
{11}
н/о н/о +11.9 +11.0 94 +8 +8 1012.7 1011.1
03 16.07 СЗ 6-8
{11}
н/о н/о +11.9 +11.0 94 +9 +9 1012.6 1011.0
04 16.07 СЗ 6-9
{10}
н/о н/о +12.0 +10.9 93 +9 +9 1012.9 1011.3
05 16.07 СЗ 4-7
{8}
н/о н/о +12.5 +11.2 92 +10 +10 1013.1 1011.4
06 16.07 СЗ 4-6
{13}
н/о н/о +13.0 +11.2 89 +11 +11 1013.5 1011.9 +11.8 +13.2
07 16.07 СЗ 3-6
{8}
н/о н/о +13.5 +11.6 88 +12 +12 1013.6 1012.0
08 16.07 СЗ 4-6
{7}
н/о н/о +14.0 +11.9 87 +13 +13 1013.6 1012.0
09 16.07 З 5-6
{6}
н/о н/о +14.1 +11.8 86 +12 +12 1013.8 1012.2
10 16.07 СЗ 4-6
{8}
н/о н/о +13.6 +11.7 88 +12 +12 1014.1 1012.5
11 16.07 З 5-6
{7}
н/о н/о +13.6 +11.8 89 +12 +12 1014.6 1013.0
12 16.07 СЗ 4-6
{8}
н/о н/о +13.8 +11.3 85 +12 +12 1014.1 1012.5
13 16.07 СЗ 3-5
{7}
н/о н/о +14.4 +11.9 85 +13 +13 1014.0 1012.4
14 16.07 СЗ 4-6
{8}
н/о н/о +15.0 +12.3 84 +14 +14 1013.8 1012.2
15 16.07 СЗ 4-6
{7}
н/о н/о +14.9 +11.7 81 +14 +14 1013.7 1012.1
16 16.07 СЗ 3-7
{7}
н/о н/о +15.5 +11.9 79 +15 +15 1013.2 1011.6
17 16.07 З 8-10
{10}
н/о н/о +14.6 +11.4 81 +12 +12 1013.0 1011.4
18 16.07 СЗ 9-11
{13}
н/о н/о +13.6 +11.5 87 +11 +11 1012.9 1011.3 +12.6 +15.8
19 16.07 З 10-13
{13}
н/о н/о +13.4 +11.5 88 +10 +10 1012.7 1011.1
20 16.07 СЗ 11-14
{14}
н/о н/о +12.8 +11.2 90 +9 +9 1012.8 1011.1
21 16.07 СЗ 9-12
{15}
н/о н/о +12.5 +10.9 90 +9 +9 1013.0 1011.3
22 16.07 СЗ 7-10
{13}
н/о н/о +12.5 +10.7 89 +10 +10 1013.2 1011.6
23 16.07 СЗ 7-9
{11}
н/о н/о +12.4 +10.8 90 +9 +9 1013.3 1011.6
00 17.07 СЗ 7-9
{15}
н/о н/о +12.1 +10.5 90 +9 +9 1013.4 1011.7
01 17.07 СЗ 9-11
{11}
н/о н/о +12.0 +10.7 92 +8 +8 1013.3 1011.7
02 17.07 СЗ 8-10
{12}
н/о н/о +11.7 +10.6 93 +8 +8 1013.3 1011.7
03 17.07 СЗ 5-8
{9}
н/о н/о +11.5 +10.4 93 +9 +9 1013.3 1011.7
04 17.07 СЗ 5-8
{9}
н/о н/о +11.7 +10.6 93 +9 +9 1013.3 1011.6
05 17.07 СЗ 4-5
{7}
н/о н/о +12.1 +10.8 92 +10 +10 1013.1 1011.5
06 17.07 СЗ 3-5
{12}
н/о н/о +12.7 +10.9 89 +11 +11 1013.2 1011.6 +11.4 +13.8
07 17.07 З 5-6
{6}
н/о н/о +13.6 +11.3 86 +12 +12 1013.4 1011.8
08 17.07 СЗ 5-6
{8}
н/о н/о +13.4 +11.3 87 +11 +11 1013.6 1011.9
09 17.07 З 6-7
{8}
н/о н/о +14.5 +12.0 85 +13 +13 1013.7 1012.1
10 17.07 З 5-6
{7}
н/о н/о +15.0 +12.3 84 +14 +14 1013.9 1012.2
11 17.07 З 5-7
{7}
н/о н/о +15.4 +12.2 81 +14 +14 1014.0 1012.3
12 17.07 З 5-6
{8}
н/о н/о +15.1 +11.5 79 +14 +14 1013.9 1012.2
13 17.07 З 4-5
{6}
н/о н/о +15.6 +11.4 76 +15 +15 1013.8 1012.2
14 17.07 З 4-5
{5}
н/о н/о +15.3 +11.1 76 +14 +14 1013.8 1012.2
15 17.07 З 3-5
{5}
н/о н/о +15.5 +10.9 74 +15 +15 1013.6 1012.0
16 17.07 З 2-2
{5}
н/о н/о +14.4 +11.2 81 +14 +14 1013.3 1011.6
17 17.07 С 1-2
{3}
н/о н/о +14.0 +11.5 85 +14 +14 1013.0 1011.4
18 17.07 СВ 1-1
{6}
н/о н/о +13.8 +11.9 88 +14 +14 1012.8 1011.2 +12.8 +16.6
19 17.07 Ю 2-5
{5}
н/о н/о +14.0 +12.6 91 +13 +13 1012.6 1011.0
20 17.07 Ю 3-5
{5}
н/о н/о +14.1 +12.5 90 +13 +13 1012.5 1010.8
21 17.07 Ю 3-4
{4}
н/о н/о +14.1 +12.7 91 +13 +13 1012.3 1010.7
22 17.07 ЮВ 2-3
{5}
н/о н/о +14.2 +12.4 89 +14 +14 1012.1 1010.5
23 17.07 Ю 5-7
{7}
н/о н/о +14.2 +12.6 90 +12 +12 1012.0 1010.4
00 18.07 В 3-4
{7}
н/о н/о +13.9 +12.5 91 +13 +13 1011.8 1010.2
01 18.07 В 3-4
{5}
н/о н/о +13.8 +12.5 92 +13 +13 1011.6 1010.0
02 18.07 ЮВ 5-6
{6}
н/о н/о +14.3 +12.9 91 +13 +13 1011.0 1009.4
03 18.07 ЮВ 5-7
{7}
н/о н/о +14.2 +12.9 92 +12 +12 1010.6 1009.0
04 18.07 ЮВ 5-7
{8}
н/о н/о +14.4 +13.0 91 +13 +13 1010.4 1008.8
05 18.07 ЮВ 7-9
{9}
н/о н/о +15.2 +13.6 90 +13 +13 1010.2 1008.6
06 18.07 ЮВ 7-10
{10}
н/о н/о +15.3 +12.6 84 +13 +13 1010.3 1008.7 +13.7 +15.4
07 18.07 ЮВ 8-11
{11}
н/о н/о +15.4 +13.1 86 +13 +13 1010.5 1008.9
08 18.07 ЮВ 8-11
{12}
н/о н/о +15.1 +13.1 88 +13 +13 1010.3 1008.7
09 18.07 ЮВ 8-10
{11}
н/о н/о +15.2 +13.4 89 +13 +13 1010.4 1008.8
10 18.07 ЮВ 8-11
{11}
н/о н/о +15.2 +13.6 90 +13 +13 1010.3 1008.7
11 18.07 ЮВ 8-11
{12}
н/о н/о +15.1 +13.5 90 +13 +13 1010.1 1008.5
12 18.07 ЮВ 8-11
{12}
н/о н/о +15.5 +13.7 89 +14 +14 1010.0 1008.4
13 18.07 В 10-14
{14}
н/о н/о +15.5 +13.9 90 +13 +13 1009.8 1008.2
14 18.07 ЮВ 8-11
{13}
н/о н/о +15.0 +14.2 95 +13 +13 1009.9 1008.3 0.3
15 18.07 ЮВ 8-11
{12}
н/о н/о +14.9 +14.4 97 +13 +13 1009.6 1008.0 1
16 18.07 В 8-11
{12}
н/о н/о +14.9 +14.3 96 +13 +13 1009.2 1007.6 1
17 18.07 ЮВ 8-10
{11}
н/о н/о +14.9 +14.4 97 +13 +13 1009.0 1007.4 2
18 18.07 В 8-10
{14}
н/о н/о +14.8 +14.3 97 +13 +13 1008.9 1007.2 +14.7 +15.8 5
19 18.07 В 8-11
{12}
н/о н/о +14.8 +14.3 97 +13 +13 1008.4 1006.8 0.7
20 18.07 В 8-12
{12}
н/о н/о +14.9 +14.4 97 +13 +13 1008.3 1006.7 0.5
21 18.07 В 8-10
{11}
н/о н/о +14.9 +14.3 96 +13 +13 1008.5 1006.9 0.4
22 18.07 ЮВ 8-12
{12}
н/о н/о +15.2 +14.7 97 +13 +13 1008.3 1006.7 0.6
23 18.07 ЮВ 8-10
{11}
н/о н/о +15.4 +14.8 96 +13 +13 1008.3 1006.7
00 19.07 ЮЗ 6-7
{12}
н/о н/о +14.4 +13.9 97 +12 +12 1008.5 1006.9 0.1
01 19.07 З 4-6
{7}
н/о н/о +13.8 +13.3 97 +12 +12 1008.7 1007.1
02 19.07 З 4-5
{5}
н/о н/о +13.6 +12.8 95 +12 +12 1009.1 1007.4
03 19.07 СЗ 4-5
{6}
н/о н/о +13.4 +11.8 90 +12 +12 1009.1 1007.5
04 19.07 СЗ 2-3
{5}
н/о н/о +13.5 +11.7 89 +13 +13 1009.3 1007.7
05 19.07 С 1-2
{3}
н/о н/о +14.2 +12.2 88 +15 +15 1009.7 1008.1
06 19.07 Ю 1-1
{7}
н/о н/о +15.3 +12.2 82 +16 +16 1010.0 1008.4 +13.3 +16.7 2
07 19.07 Ю 1-2
{2}
н/о н/о +16.9 +13.6 81 +18 +18 1010.2 1008.6
08 19.07 ЮВ 2-3
{3}
н/о н/о +16.5 +13.2 81 +17 +17 1010.6 1009.0
09 19.07 ЮВ 2-3
{4}
н/о н/о +16.9 +13.6 81 +17 +17 1010.9 1009.3
10 19.07 Ю 2-4
{4}
н/о н/о +17.9 +14.2 79 +18 +18 1011.1 1009.6
11 19.07 Ю 3-4
{4}
н/о н/о +18.4 +14.5 78 +19 +19 1011.5 1009.9
12 19.07 Ю 4-4
{5}
н/о н/о +18.6 +15.3 81 +19 +19 1011.7 1010.1
13 19.07 Ю 3-4
{4}
н/о н/о +19.1 +15.0 77 +21 +21 комфорт 1011.8 1010.2
14 19.07 Ю 3-4
{4}
н/о н/о +18.6 +14.7 78 +20 +20 1012.0 1010.5
15 19.07 Ю 3-3
{4}
н/о н/о +18.5 +14.8 79 +19 +19 1012.0 1010.4
17 19.07 Ю 3-3
{4}
н/о н/о +17.9 +14.8 82 +18 +18 1011.8 1010.2
18 19.07 Ю 3-4
{4}
н/о н/о +16.8 +14.1 84 +17 +17 1011.7 1010.1 +15.3 +19.4
19 19.07 Ю 3-4
{4}
н/о н/о +16.2 +14.2 88 +16 +16 1011.7 1010.1
20 19.07 ЮВ 3-4
{4}
н/о н/о +15.5 +13.9 90 +15 +15 1012.0 1010.4
21 19.07 В 2-3
{5}
н/о н/о +13.6 +11.8 89 +13 +13 1012.0 1010.4
22 19.07 В 3-4
{4}
н/о н/о +13.3 +12.5 95 +12 +12 1012.0 1010.3
23 19.07 В 4-5
{5}
н/о н/о +13.8 +13.2 96 +12 +12 1011.8 1010.2
00 20.07 В 4-6
{6}
н/о н/о +14.1 +13.3 95 +13 +13 1011.5 1009.9
01 20.07 В 5-6
{6}
н/о н/о +14.3 +13.5 95 +13 +13 1011.3 1009.7
02 20.07 В 5-6
{7}
н/о н/о +14.6 +13.8 95 +13 +13 1010.9 1009.3
03 20.07 В 5-7
{7}
н/о н/о +14.9 +14.1 95 +13 +13 1010.6 1009.0
04 20.07 ЮВ 7-9
{9}
н/о н/о +15.5 +14.5 94 +14 +14 1010.5 1008.9
05 20.07 ЮВ 6-8
{13}
н/о н/о +14.2 +13.3 94 +12 +12 1010.2 1008.6 0.4
06 20.07 ЮВ 7-9
{13}
н/о н/о +14.6 +14.0 96 +12 +12 1010.0 1008.4 +13.3 +16.7 0.9
07 20.07 ЮВ 9-13
{13}
н/о н/о +14.3 +13.8 97 +12 +12 1009.5 1007.9 2
08 20.07 В 9-11
{14}
н/о н/о +14.5 +14.0 97 +12 +12 1009.1 1007.5 0.9
09 20.07 В 11-15
{15}
н/о н/о +14.5 +13.7 95 +12 +12 1008.6 1007.0 0.8
10 20.07 В 12-16
{16}
н/о н/о +13.9 +13.4 97 +11 +11 1008.4 1006.8 4
11 20.07 В 10-15
{17}
н/о н/о +14.2 +13.9 98 +11 +11 1008.1 1006.5 5
12 20.07 В 10-16
{17}
н/о н/о +14.6 +14.3 98 +12 +12 1007.9 1006.3 5
13 20.07 В 10-14
{16}
н/о н/о +14.9 +14.6 98 +12 +12 1007.6 1006.0 3
14 20.07 ЮВ 9-12
{18}
н/о н/о +15.4 +15.1 98 +13 +13 1007.4 1005.8 7
15 20.07 ЮВ 10-14
{16}
н/о н/о +15.6 +15.3 98 +13 +13 1007.3 1005.7 4

 

Местоположение метеостанции Маяк Lista (Норвегия): широта 58.11 долгота 6.57 высота над уровнем моря 14 м.

В архиве по умолчанию представлена погода на Маяке Lista за последнюю неделю. Архивные данные за месяц целиком и за предыдущие месяцы, начиная с января 2011 года, Вы можете получить, выбрав интересующий диапазон дат из раскрывающегося списка и нажав кнопку "Ввод!".


*Определитесь, кто Вы:
робот инопланетянин человек

Внимание! Время в таблицах - всемирное. Для получения местного времени необходимо прибавить поправку, которая равна 1 ч.

Смотрите также архив погоды в соседних городах и на ближайших метеорологических станциях:

Погода на Маяке Lindesnes (Норвегия) (32 км)
Погода в Эйк-Хоуве (Норвегия) (45 км)
Погода в Консмо-Хойланде (Норвегия) (51 км)
Погода в Мандале (Норвегия) (53 км)
Погода в Айгеройе (Норвегия) (55 км)
Погода на Маяке Obrestad (Норвегия) (84 км)
Погода на Маяке Oksoy (Норвегия) (87 км)
Погода в Кьевике (Норвегия) (89 км)
Погода в Сархейме (Норвегия) (90 км)
Погода в Сирдал-Синнесе (Норвегия) (92 км)

Пояснения к столбцам:

Ветер - указаны скорость ветра в м/с - средняя за 10 мин, порывы в срок и между сроками (в фигурных скобках) и направление, откуда дует ветер: С - северный, СВ - северо-восточный, В - восточный, ЮВ - юго-восточный, Ю - южный, ЮЗ - юго-западный, З - западный, СЗ - северо-западный.
Видимость - горизонтальная дальность видимости в метрах или километрах. При видимости от 1 до 10 км при отсутствии осадков обычно наблюдается дымка, при ухудшении видимости до 1 км и менее - туман. В сухую погоду видимость может ухудшаться дымом, пылью или мглою.
Явления - указаны атмосферные явления, наблюдавшиеся в срок или в последний час перед сроком; фигурными скобками обозначены явления, наблюдавшиеся между сроками (за 1-3 часа до срока); квадратными скобками обозначены град или гололедные отложения с указанием их диаметра в мм.
Облачность - указаны через наклонную черту общая и нижняя облачность в баллах и высота нижней границы облаков в метрах; квадратными скобками обозначены формы облаков: Ci - перистые, Cs - перисто-слоистые, Cc - перисто-кучевые, Ac - высококучевые, As - высокослоистые, Sc - слоисто-кучевые, Ns - слоисто-дождевые, Cu - кучевые, Cb - кучево-дождевые. Подробнее классификацию облаков см. в Атласе облаков (PDF).
T - Температура воздуха - температура, измеренная на высоте 2 м над землей.
Td - Температура точки росы - температура, при понижении до которой содержащийся в воздухе водяной пар достигнет насыщения.
f - Относительная влажность воздуха - влажноcть воздуха, измеренная на высоте 2 м над землей.
Te - Эффективная температура - температура, которую ощущает одетый по сезону человек в тени. Характеристика душности погоды. При расчете учитывается влияние влажности воздуха и скорости ветра на теплоощущения человека.
Tes - Эффективная температура на солнце - температура, которую ощущает человек, с поправкой на солнечный нагрев. Характеристика знойности погоды. Зависит от высоты солнца над горизонтом, облачности и скорости ветра. Ночью, в пасмурную погоду, а также при ветре 12 м/с и более поправка равна нулю.
P - Атмосферное давление - приведенное к уровню моря атмосферное давление.
Po - Атмосферное давление - измеренное на уровне метеостанции атмосферное давление.
Tmin - Минимальная температура - минимум температуры воздуха на высоте 2 м над землей.
Tmax - Максимальная температура - максимум температуры воздуха на высоте 2 м над землей.
R - Количество осадков - Количество выпавших осадков за период времени, мм. При наведении курсора мыши на число - период времени, за который выпало указанное количество осадков.
R24 - Количество осадков - Количество выпавших осадков за 24 часа, мм.
S - Снежный покров - Высота снежного покрова, см. При наведении курсора мыши на число - состояние снежного покрова и степень покрытия местности в баллах.